Location: Dayton
(39.7590°N, 84.1920°W)
Time: 16:00:57
(UTC-04:00)

ATLAS CENTAUR R/B - Visible Passes

Search period start: 23 June 2018 00:00
Search period end: 03 July 2018 00:00
Orbit: 204 x 6922 km, 57.3° (Epoch: 20 June)

Date Brightness Start Highest point End Pass type
(mag) Time Alt. Az. Time Alt. Az. Time Alt. Az.
23 Jun 6.9 02:46:31 10° NW 03:11:05 54° WSW 03:53:08 10° S visible
23 Jun 6.4 21:44:06 10° NW 21:56:27 46° NNE 22:30:05 10° E visible
24 Jun 6.5 00:35:21 10° NW 00:56:05 88° NE 01:42:03 10° SE visible
24 Jun 7.1 03:28:46 10° NW 03:52:52 39° WSW 04:30:23 10° SSW visible
24 Jun 6.4 22:25:01 10° NW 22:39:44 55° NNE 23:18:57 10° ESE visible
25 Jun 6.6 01:16:19 10° NW 01:38:47 76° WSW 02:21:59 13° SSE visible
25 Jun 7.3 04:12:10 10° WNW 04:33:39 26° WSW 05:04:02 10° SW visible
25 Jun 6.4 23:05:39 10° NW 23:22:40 67° NE 00:05:50 10° SE visible
26 Jun 6.8 01:57:20 10° NW 02:20:57 60° WSW 02:53:51 23° S visible
26 Jun 7.6 04:59:20 10° WNW 05:13:24 15° W 05:30:38 10° WSW visible
26 Jun 6.3 20:54:59 10° NW 21:05:57 42° NNE 21:35:49 10° E visible
26 Jun 6.5 23:46:03 10° NW 00:05:11 81° NE 00:45:02 17° SE visible
27 Jun 7.0 02:38:38 10° NW 03:02:24 45° WSW 03:29:01 24° SSW visible
27 Jun 6.4 21:35:19 10° NW 21:48:30 50° NNE 22:24:25 10° ESE visible
28 Jun 6.5 00:26:19 10° NW 00:47:19 83° SW 01:21:02 25° SSE visible
28 Jun 7.2 03:20:41 10° NW 03:43:01 31° WSW 04:05:04 20° SW visible
28 Jun 6.4 22:15:20 10° NW 22:30:45 61° NE 23:11:32 10° ESE visible
29 Jun 6.7 01:06:33 10° NW 01:28:58 66° WSW 01:57:29 30° S visible
29 Jun 7.5 04:04:45 10° WNW 04:22:37 19° W 04:41:33 13° SW visible
29 Jun 6.4 22:55:05 10° NW 23:12:36 74° NE 23:50:06 17° SE visible
30 Jun 6.9 01:46:57 10° NW 02:10:04 51° WSW 02:34:11 30° SSW visible
30 Jun 6.4 23:34:41 10° NW 23:54:04 90° NE 00:26:56 25° SE visible
01 Jul 7.1 02:27:49 10° NW 02:50:26 37° WSW 03:11:02 25° SW visible
01 Jul 6.3 21:23:20 10° NW 21:37:08 55° NNE 22:14:45 10° ESE visible
02 Jul 6.6 00:14:10 10° NW 00:35:11 74° WSW 01:03:50 31° SSE visible
02 Jul 7.4 03:09:52 10° WNW 03:29:54 25° WSW 03:47:56 18° SW visible
02 Jul 6.3 22:02:29 10° NW 22:18:19 67° NE 22:56:39 14° SE visible
